TimeHST,TemperatureF,Dew PointF,Humidity,Sea Level PressureIn,VisibilityMPH,Wind Direction,Wind SpeedMPH,Gust SpeedMPH,PrecipitationIn,Events,Conditions,WindDirDegrees,DateUTC
12:53 AM,75.9,69.1,79,30.01,10.0,SE,9.2,-,N/A,,Clear,130,2013-05-13 10:53:00
1:53 AM,77.0,68.0,74,29.99,10.0,SE,5.8,-,N/A,,Partly Cloudy,140,2013-05-13 11:53:00
2:53 AM,75.9,69.1,79,29.98,10.0,SSE,3.5,-,N/A,,Mostly Cloudy,160,2013-05-13 12:53:00
3:53 AM,75.9,70.0,82,29.98,10.0,ESE,5.8,-,N/A,,Overcast,110,2013-05-13 13:53:00
4:53 AM,77.0,69.1,76,29.98,10.0,Calm,Calm,-,N/A,,Overcast,0,2013-05-13 14:53:00
5:53 AM,77.0,69.1,76,29.99,10.0,SSE,3.5,-,N/A,,Overcast,150,2013-05-13 15:53:00
6:53 AM,78.1,70.0,76,30.01,10.0,SSE,6.9,-,N/A,,Overcast,150,2013-05-13 16:53:00
6:56 AM,78.8,69.8,74,30.01,10.0,SSE,6.9,-,N/A,,Mostly Cloudy,150,2013-05-13 16:56:00
7:53 AM,79.0,69.1,72,30.02,10.0,WSW,8.1,-,N/A,,Mostly Cloudy,240,2013-05-13 17:53:00
8:53 AM,79.0,69.1,72,30.03,10.0,South,6.9,-,N/A,,Overcast,190,2013-05-13 18:53:00
9:02 AM,78.8,69.8,74,30.03,10.0,South,11.5,-,N/A,,Overcast,170,2013-05-13 19:02:00
9:38 AM,78.8,69.8,74,30.04,10.0,South,8.1,-,0.00,Rain,Light Rain,190,2013-05-13 19:38:00
10:53 AM,81.0,70.0,69,30.03,10.0,South,5.8,-,N/A,,Mostly Cloudy,190,2013-05-13 20:53:00
11:53 AM,81.0,70.0,69,30.02,10.0,South,8.1,-,N/A,,Overcast,190,2013-05-13 21:53:00
12:53 PM,82.9,70.0,65,30.01,10.0,South,15.0,19.6,N/A,,Mostly Cloudy,180,2013-05-13 22:53:00
1:53 PM,84.2,71.6,66,29.99,10.0,South,12.7,-,N/A,,Overcast,190,2013-05-13 23:53:00
2:53 PM,82.9,69.1,63,29.98,10.0,South,13.8,-,N/A,,Overcast,180,2013-05-14 00:53:00
3:53 PM,82.0,69.1,65,29.97,10.0,South,12.7,-,N/A,,Overcast,180,2013-05-14 01:53:00
4:53 PM,81.0,70.0,69,29.97,10.0,South,13.8,-,N/A,,Overcast,190,2013-05-14 02:53:00
5:46 PM,80.6,69.8,70,29.98,10.0,SSE,10.4,-,N/A,,Overcast,150,2013-05-14 03:46:00
5:53 PM,79.0,70.0,74,29.99,10.0,ESE,10.4,-,N/A,,Overcast,120,2013-05-14 03:53:00
6:28 PM,78.8,69.8,74,29.99,10.0,East,6.9,-,N/A,,Overcast,90,2013-05-14 04:28:00
6:53 PM,78.1,70.0,76,30.00,10.0,Calm,Calm,-,N/A,,Overcast,0,2013-05-14 04:53:00
7:53 PM,77.0,70.0,79,30.01,10.0,WNW,4.6,-,0.01,,Overcast,300,2013-05-14 05:53:00
8:53 PM,78.1,71.1,79,30.03,10.0,NW,5.8,-,N/A,,Mostly Cloudy,320,2013-05-14 06:53:00
9:53 PM,78.1,70.0,76,30.04,10.0,NNE,4.6,-,N/A,,Overcast,30,2013-05-14 07:53:00
10:05 PM,78.8,69.8,74,30.03,10.0,NNE,8.1,-,N/A,,Mostly Cloudy,30,2013-05-14 08:05:00
10:53 PM,75.9,66.9,74,30.04,10.0,Calm,Calm,-,N/A,,Clear,0,2013-05-14 08:53:00
11:53 PM,75.9,66.0,71,30.03,10.0,Calm,Calm,-,N/A,,Scattered Clouds,0,2013-05-14 09:53:00